Regional Weather Roundup
Issued by NWS

Home | Current Version | Previous Version | Text Only | Print | Product List | Glossary On
Versions: 1 2 3 4 5 6 7 8 9 10 11 12 13 14 15 16 17 18 19 20 21 22 23 24 25 26 27 28 29 30 31 32 33 34 35 36 37 38 39 40 41 42 43 44 45 46 47 48 49 50
000
ASUS42 KTBW 301717
RWRFL
FLORIDA REGIONAL WEATHER ROUNDUP
NATIONAL WEATHER SERVICE TAMPA BAY RUSKIN FL
100 PM EDT THU MAR 30 2017

NOTE: "FAIR" INDICATES FEW OR NO CLOUDS BELOW 12,000 FEET WITH NO
SIGNIFICANT WEATHER AND/OR OBSTRUCTIONS TO VISIBILITY.

FLZ001>010-012>015-112-114-115-301800-
PANHANDLE FLORIDA

CITY           SKY/WX    TMP DP  RH WIND       PRES   REMARKS
PENSACOLA      CLOUDY    77  68  73 SE15      29.94S
PENSACOLA NAS  CLOUDY    77  70  79 SE15      29.93F
MILTON NAS     CLOUDY    78  66  66 S16G26    29.94S
CRESTVIEW      MOSUNNY   78  65  63 S14G21    29.96F
DUKE FIELD     PTSUNNY   77  65  65 SE12      29.94F
VALPARAISO     PTSUNNY   76  68  76 S13       29.96F
MARY ESTHER    PTSUNNY   77  66  69 SE14      29.94F
PANAMA CITY    FAIR      80  61  52 S12G18    29.96F
TYNDALL AFB    MOSUNNY   77  68  72 S9        29.98F
APALACHICOLA   MOSUNNY   78  69  73 S12       29.99F

STATION/POSITION SKY/WX   TEMP    WIND        PRES    WAVE   SWELL
                          AIR SEA DIR/SP/G            HT/PER HT/PER
                          (F)     (DEG/KT/KT) (MB)    (FT/S) (FT/S)
30.1N   87.6W              72 71  140/ 14/ 16 1013.4S   4/ 6   2/ 7
29.2N   88.2W              74 74  130/ 14/ 17 1013.0F   4/ 6   2/ 7
PANAMA CITY BEAC           73 71  150/  7/  8 1015.2F
TOWER C                    71     230/  5/  5 1016.5F
28.5N   84.5W              72 72  200/  4/  6 1016.7    2/ 4   2/ 5

$$
FLZ011-016>038-118-127-128-134-139-239-301800-
NORTH FLORIDA

CITY           SKY/WX    TMP DP  RH WIND       PRES   REMARKS
MARIANNA       MOSUNNY   80  61  52 S6        29.95F
TALLAHASSEE    PTSUNNY   81  56  42 W6        29.98F
PERRY          MOSUNNY   85  54  34 SW13G18   30.00S
CROSS CITY     MOSUNNY   86  57  37 SW12      29.99F
LAKE CITY      FAIR      84  52  32 SW5       29.99F
GAINESVILLE    MOSUNNY   85  60  42 SW8       29.99F
WILLISTON      SUNNY     90  61  37 VRB5      29.99F
PALATKA        FAIR      84  59  42 S9        30.00S
MAYPORT NAS    MOSUNNY   82  62  50 SE14      29.99F
JACKSONVILLE   MOSUNNY   85  61  44 VRB7      29.98F
JAX NAS        MOSUNNY   82  61  48 S9        30.00F
FERNANDINA BEA FAIR      82  64  54 SE9       29.98F
ST AUGUSTINE   SUNNY     80  65  59 E13       30.01
PALM COAST     MOSUNNY   84  57  39 SW9G16    29.99F

STATION/POSITION SKY/WX   TEMP    WIND        PRES    WAVE   SWELL
                          AIR SEA DIR/SP/G            HT/PER HT/PER
                          (F)     (DEG/KT/KT) (MB)    (FT/S) (FT/S)
SHELL POINT      NOT AVBL
KEATON BEACH               74     220/  9/ 10 1015.9F
CEDAR KEY                  74     160/  5/  5 1016.6R
FERNANDINA                 83 67  130/  6/  9 1016.1F
30.7N   81.3W                 69                N/A     2/11   2/11
MAYPORT                    80 67  130/  7/ 10 1015.9F
31.4N   80.9W              68 66  130/  6/  8 1015.9F   3/11   3/11
ST AUGUSTINE               71 67  110/  8/  9 1016.7F

$$
FLZ040-043>046-052-053-057-058-063-144-301800-
INTERIOR CENTRAL FLORIDA

CITY           SKY/WX    TMP DP  RH WIND       PRES   REMARKS
OCALA          MOSUNNY   84  57  39 S8        30.00F
THE VILLAGES     N/A     86  61  42 MISG      29.90F
LEESBURG       SUNNY     85  58  39 S6        30.01F
SANFORD        SUNNY     85  55  35 S13       29.99F
ORLANDO EXEC   SUNNY     85  56  37 S12       30.00F
ORLANDO INTL   MOSUNNY   86  54  33 S14       30.00F
KISSIMMEE      MOSUNNY   84  61  45 S14       30.01F
WINTER HAVEN   MOSUNNY   84  53  34 S9        30.02S
LAKELAND       MOSUNNY   81  61  50 SE8       30.01F
BARTOW         MOSUNNY   82  55  39 SW9       30.01F
OKEECHOBEE     SUNNY    N/A N/A N/A S15       30.01F

$$
FLZ041-047-054-059-064-141-147-301800-
EAST CENTRAL FLORIDA

CITY           SKY/WX    TMP DP  RH WIND       PRES   REMARKS
ORMOND BEACH   MOSUNNY   84  57  39 S12       29.99F
DAYTONA BEACH  MOSUNNY   84  58  40 SE7       30.00F
DELAND         SUNNY     84  55  37 S9G16     29.99F
NEW SMYRNA BEA MOSUNNY   84  57  39 SE14      30.01F
JFK SPACE CTR  SUNNY     84  62  47 S10       30.00F
TITUSVILLE     MOSUNNY   81  55  41 SW8       30.01F
CAPE CANAVERAL SUNNY     84  63  49 SE10      30.01S
PATRICK AFB    SUNNY     80  67  64 SE9       30.01S
MELBOURNE      MOSUNNY   85  65  51 SE12      30.02F
VERO BEACH     SUNNY     83  65  54 E14       30.01F
FT PIERCE      MOSUNNY   83  64  52 SE16      30.00F
STUART         MOSUNNY   84  63  48 SE14      30.01F

STATION/POSITION SKY/WX   TEMP    WIND        PRES    WAVE   SWELL
                          AIR SEA DIR/SP/G            HT/PER HT/PER
                          (F)     (DEG/KT/KT) (MB)    (FT/S) (FT/S)
TRIDENT PIER               79 74  150/  7/ 10 1017.7F
28.4N   80.5W                 74                N/A     2/10   2/11
27.5N   80.2W                 77                N/A     2/10   2/18

$$
FLZ050-056-061-142-242-148-248-149-249-151-251-155-255-
160-260-301800-
WEST CENTRAL FLORIDA

CITY           SKY/WX    TMP DP  RH WIND       PRES   REMARKS
CRYSTAL RIVER  FAIR      82  59  44 W12       30.00S
INVERNESS      PTSUNNY   84  61  45 S3        30.00S
BROOKSVILLE    MOSUNNY   85  58  39 SW7       30.01R
CLEARWATER AIR FAIR      81  63  54 SW8       30.01R
ST PETE CLEARW MOSUNNY   84  60  44 W12       30.00S
TAMPA INTL     MOSUNNY   82  64  54 SW10      30.01S
TAMPA EXEC     MOSUNNY   86  59  39 S3        30.01S
PLANT CITY     MOSUNNY   84  63  48 CALM      30.02F
MACDILL AFB    MOSUNNY   84  65  53 W6        30.00F
PETER O KNIGHT SUNNY     84  64  51 SW5       30.01S
ST PETERSBURG  SUNNY     77  63  61 W10       29.99S
SARASOTA       SUNNY     81  62  52 SW20      29.99S
VENICE         FAIR      79  68  69 SW14      30.01F

STATION/POSITION SKY/WX   TEMP    WIND        PRES    WAVE   SWELL
                          AIR SEA DIR/SP/G            HT/PER HT/PER
                          (F)     (DEG/KT/KT) (MB)    (FT/S) (FT/S)
27.3N   84.2W                 74                N/A     3/ 5
CLEARWATER BEACH           73 73  200/ 15/ 18 1016.6R
MIDDLE TAMPA BAY           75     260/ 11/ 12 1016.3F
VENICE                     75 74  190/ 11/ 11 1015.6F

$$
FLZ066-069-070-075>078-162-262-165-265-301800-
SOUTHWEST FLORIDA AND KEYS

CITY           SKY/WX    TMP DP  RH WIND       PRES   REMARKS
PUNTA GORDA    MOSUNNY   83  57  41 VRB6      30.01S
FT MYERS       MOSUNNY   87  58  37 S10G17    29.98F
SOUTHWEST INTL MOSUNNY   83  57  41 SE8       29.98F
NAPLES         MOSUNNY   82  61  48 SE8       29.98S
IMMOKALEE        N/A     82  61  47 SE8G18    29.98S
MARATHON       SUNNY     83  66  56 SE10G20   29.98F
KEY WEST NAS   MOSUNNY   82  65  56 SE21G29   29.97F
KEY WEST INTL  SUNNY     81  66  60 SE21      29.97F

STATION/POSITION SKY/WX   TEMP    WIND        PRES    WAVE   SWELL
                          AIR SEA DIR/SP/G            HT/PER HT/PER
                          (F)     (DEG/KT/KT) (MB)    (FT/S) (FT/S)
NAPLES                        75              1015.1F
26.0N   85.6W              78     130/ 14/ 16 1014.5F   5/ 6
DRY TORTUGAS               76     160/ 19/ 22 1014.8S
SAND KEY                   76     160/ 21/ 26 1015.2F
LONG KEY                   77 78  160/ 16/ 18 1015.8F
MOLASSES REEF              76 78  160/ 17/ 19 1015.8F

$$
FLZ067-068-071>074-168-172>174-301800-
SOUTHEAST FLORIDA

CITY           SKY/WX    TMP DP  RH WIND       PRES   REMARKS
W PALM BEACH   MOSUNNY   81  60  48 SE14G21   30.01F
BOCA RATON     MOSUNNY   79  63  57 S15G23    30.01F
FT LAUDER-EXEC MOSUNNY   83  58  42 S10       30.00F
FT LAUDERDALE  MOSUNNY   80  61  52 SE17G26   29.99F
POMPANO BEACH  MOSUNNY   81  61  50 SE15G23   30.01F
PEMBROKE PINES PTSUNNY   83  61  47 SE16G22   30.01F
OPA LOCKA      MOSUNNY   82  59  45 SE18      30.00F
MIAMI          MOSUNNY   81  62  52 E20G25    30.00F
WEST KENDALL   PTSUNNY   82  59  45 S12G22    29.99F
HOMESTEAD      PTSUNNY   81  64  57 SE12G22   29.99F

STATION/POSITION SKY/WX   TEMP    WIND        PRES    WAVE   SWELL
                          AIR SEA DIR/SP/G            HT/PER HT/PER
                          (F)     (DEG/KT/KT) (MB)    (FT/S) (FT/S)
PORT EVERGLADES            78     150/  9/ 15 1016.4F
LAKE WORTH                        170/ 17/ 19   N/A
FOWEY ROCKS                75 78  130/ 17/ 18 1016.4F
SETTLEMENT POINT           77     170/ 13/ 17 1016.5F

$$




USA.gov is the U.S. government's official web portal to all federal, state and local government web resources and services.